Weather History for Youngstown, OH

Change the Weather History Date:

Monday, November 4, 2013

  Actual Average Record
Temperature  
Mean Temperature 34 °F 46 °F  
Max Temperature 44 °F 54 °F 77 °F (2003)
Min Temperature 24 °F 37 °F 14 °F (1991)
Degree Days  
Heating Degree Days 31 20  
Month to date heating degree days 87 77  
Since 1 July heating degree days 645 698  
Cooling Degree Days 0 0  
Month to date cooling degree days 0 0  
Year to date cooling degree days 630 544  
Moisture  
Dew Point 19 °F    
Average Humidity 57    
Maximum Humidity 81    
Minimum Humidity 33    
Precipitation  
Precipitation 0.00 in 0.11 in 2.73 in (1985)
Month to date precipitation 0.32 0.42  
Year to date precipitation 32.85 33.16  
Snow  
Snow 0.00 in 0.10 in - ()
Month to date snowfall 0.0 0.2  
Since 1 July snowfall 1.2 1.0  
Since 1 September snowfall 1.2 1.0  
Snow Depth 0.00 in    
Sea Level Pressure  
Sea Level Pressure 30.50 in    
Wind  
Wind Speed 10 mph (ESE)    
Max Wind Speed 18 mph    
Max Gust Speed 24 mph    
Visibility 10 miles    
Events      
T = Trace of Precipitation, MM = Missing Value Source: NWS Daily Summary

Daily Weather History Graph

Daily Weather History Graph

Search for Another Location

Airport:

Trip Planner

Search our weather history database for the weather conditions in past years. The results will help you decide how hot, cold, wet, or windy it might be!

Date:

Astronomy

Nov. 04, 2013 Rise Set
Actual Time 6:57 AM EST 5:14 PM EST
Civil Twilight 6:28 AM EST 5:43 PM EST
Nautical Twilight 5:56 AM EST 6:15 PM EST
Astronomical Twilight 5:23 AM EST 6:47 PM EST
Moon 8:07 AM EST (11/4) 6:16 PM EST (11/4)
Length of Visible Light 11h 14m
Length of Day
10h 16m
New Moon, 2% of the Moon is Illuminated
Nov 4
New Moon
Nov 10
First Quarter
Nov 17
Full
Nov 25
Last Quarter
Dec 2
New

Hourly Weather History & Observations

Time (EST) Temp. Windchill Dew Point Humidity Pressure Visibility Wind Dir Wind Speed Gust Speed Precip Events Conditions
12:51 AM 27.0 °F 21.6 °F 21.0 °F 78% 30.52 in 10.0 mi East 4.6 mph - N/A   Partly Cloudy
1:51 AM 26.1 °F 20.5 °F 21.0 °F 81% 30.53 in 10.0 mi East 4.6 mph - N/A   Clear
2:51 AM 26.1 °F 21.9 °F 19.9 °F 78% 30.53 in 10.0 mi East 3.5 mph - N/A   Partly Cloudy
3:51 AM 25.0 °F 17.1 °F 19.9 °F 81% 30.52 in 10.0 mi East 6.9 mph - N/A   Partly Cloudy
4:51 AM 25.0 °F 18.1 °F 19.0 °F 78% 30.53 in 10.0 mi ESE 5.8 mph - N/A   Scattered Clouds
5:51 AM 25.0 °F 17.1 °F 19.0 °F 78% 30.56 in 10.0 mi ESE 6.9 mph - N/A   Partly Cloudy
6:51 AM 27.0 °F 18.7 °F 19.0 °F 72% 30.56 in 10.0 mi ESE 8.1 mph - N/A   Mostly Cloudy
7:51 AM 28.9 °F 20.4 °F 19.9 °F 69% 30.58 in 10.0 mi ESE 9.2 mph - N/A   Mostly Cloudy
8:51 AM 32.0 °F 22.5 °F 21.0 °F 64% 30.57 in 10.0 mi ESE 12.7 mph - N/A   Overcast
9:51 AM 34.0 °F 25.0 °F 19.0 °F 54% 30.56 in 10.0 mi ESE 12.7 mph 20.7 mph N/A   Overcast
10:51 AM 36.0 °F 27.1 °F 18.0 °F 48% 30.56 in 10.0 mi ESE 13.8 mph - N/A   Overcast
11:51 AM 37.9 °F 29.6 °F 18.0 °F 45% 30.53 in 10.0 mi ESE 13.8 mph - N/A   Overcast
12:51 PM 39.9 °F 32.5 °F 17.1 °F 40% 30.49 in 10.0 mi SE 12.7 mph - N/A   Overcast
1:51 PM 42.1 °F 35.7 °F 16.0 °F 35% 30.48 in 10.0 mi SE 11.5 mph - N/A   Overcast
2:51 PM 43.0 °F 36.8 °F 16.0 °F 34% 30.45 in 10.0 mi ESE 11.5 mph - N/A   Overcast
3:51 PM 42.1 °F 35.7 °F 16.0 °F 35% 30.45 in 10.0 mi ESE 11.5 mph - N/A   Overcast
4:51 PM 41.0 °F 34.7 °F 17.1 °F 38% 30.45 in 10.0 mi ESE 10.4 mph - N/A   Overcast
5:51 PM 37.9 °F 32.7 °F 19.0 °F 47% 30.46 in 10.0 mi ESE 6.9 mph - N/A   Mostly Cloudy
6:51 PM 39.0 °F 32.3 °F 18.0 °F 43% 30.45 in 10.0 mi SE 10.4 mph - N/A   Overcast
7:51 PM 39.0 °F 32.3 °F 19.0 °F 45% 30.45 in 10.0 mi SE 10.4 mph - N/A   Overcast
8:51 PM 39.0 °F 31.4 °F 19.0 °F 45% 30.43 in 10.0 mi SE 12.7 mph - N/A   Overcast
9:51 PM 39.9 °F 33.4 °F 19.9 °F 45% 30.44 in 10.0 mi SE 10.4 mph - N/A   Overcast
10:51 PM 39.9 °F 33.9 °F 21.0 °F 47% 30.44 in 10.0 mi SE 9.2 mph - N/A   Overcast
11:51 PM 39.9 °F 33.9 °F 21.9 °F 49% 30.43 in 10.0 mi SE 9.2 mph - N/A   Overcast